Regional Weather Roundup
Issued by NWS

Home | Current Version | Previous Version | Text Only | Print | Product List | Glossary Off
Versions: 1 2 3 4 5 6 7 8 9 10 11 12 13 14 15 16 17 18 19 20 21 22 23 24 25 26 27 28 29 30 31 32 33 34 35 36 37 38 39 40 41 42 43 44 45 46 47 48 49 50

000
ASUS43 KMPX 122201
RWRMN
WEATHER ROUNDUP FOR MINNESOTA
NATIONAL WEATHER SERVICE TWIN CITIES/CHANHASSEN MN
400 PM CST FRI FEB 12 2016


NOTE: "FAIR" INDICATES FEW OR NO CLOUDS BELOW 12,000 FEET WITH NO
SIGNIFICANT WEATHER AND/OR OBSTRUCTIONS TO VISIBILITY. N/A MEANS
CURRENT SKY AND/OR WEATHER CONDITIONS ARE NOT AVAILABLE.

MNZ060>063-068>070-122300-
   Twin Cities Metro

CITY           SKY/WX    TMP DP  RH WIND       PRES   REMARKS
TWIN CITIES    SUNNY     10  -9  42 NW17      30.49R WCI  -8
ST PAUL        SUNNY     10 -10  40 N16       30.50R WCI  -7
CRYSTAL        SUNNY     10 -11  38 NW15      30.48R WCI  -7
BLAINE         SUNNY     10  -9  40 NW14      30.47R WCI  -5
LAKEVILLE      SUNNY      9  -8  47 NW18      30.46S WCI -10
EDEN PRAIRIE   SUNNY     10  -9  42 NW18      30.48R WCI  -8
SOUTH ST PAUL  SUNNY     11 -10  38 NW17      30.48R WCI  -7
LAKE ELMO      FAIR      10  -9  40 NW16G23   30.47R WCI  -7
$$
MNZ001>005-007-008-013>017-022>024-027-028-122300-
   Northwest Minnesota

CITY           SKY/WX    TMP DP  RH WIND       PRES   REMARKS
BEMIDJI        SUNNY     -2 -15  56 W15       30.52R WCI -22
HALLOCK        SUNNY     -4 -15  59 NW15      30.67R WCI -25
ROSEAU         MOSUNNY   -2 -15  55 W10       30.58S WCI -19
WARROAD        SUNNY     -2 -17  50 NW13G21   30.57R WCI -21
THIEF RVR FALL SUNNY     -6 -29  31 NW18      30.62R WCI -29
CROOKSTON      SUNNY     -2  -9  71 N16       30.68R WCI -23
FOSSTON          N/A     -2 -15  55 NW13      30.59R WCI -21
DETROIT LAKES  SUNNY     -2  -9  71 NW16      30.59R WCI -23
MOORHEAD       SUNNY      0  -9  65 N16       30.66S WCI -21
PARK RAPIDS    SUNNY      2 -14  47 NW14      30.51R WCI -16
MAHNOMEN       FAIR      -5 -13  67 NW15      30.59R WCI -26
$$
MNZ006-009>011-018-025>026-122300-
   North Central Minnesota

CITY           SKY/WX    TMP DP  RH WIND       PRES   REMARKS
BAUDETTE       SUNNY     -3 -18  48 NW14      30.52R WCI -22
FLAG ISLAND    SUNNY     -6 -17  59 NW16      30.54S WCI -28
INTL FALLS     SUNNY     -3 -19  46 NW17      30.48R WCI -24
WASKISH        SUNNY      0 -15  50 W10       30.53R WCI -17
LONGVILLE      SUNNY      1 -15  46 W10G17    30.48S WCI -14
GRAND RAPIDS   SUNNY      0 -17  46 NW18      30.44S WCI -22
CRANE LAKE     SUNNY     -2 -20  42 NW9G16    30.45S WCI -18
ORR            SUNNY     -2 -20  42 NW13G18   30.41R WCI -21
COOK           SUNNY      0 -18  42 W13       30.42R WCI -18
WALKER         FAIR       0 -15  49 NW16G22   30.50R WCI -21
$$
MNZ012-019>021-037-122300-
   Northeast Minnesota

CITY           SKY/WX    TMP DP  RH WIND       PRES   REMARKS
DULUTH         MOSUNNY    1 -16  44 NW18G28   30.37R WCI -20
ELY            SUNNY     -2 -18  46 NW14G23   30.36S WCI -21
HIBBING        SUNNY     -2 -17  49 NW20G26   30.42R WCI -24
EVELETH        SUNNY      3 -17  39 NW10G18   30.41R WCI -12
DULUTH HARBOR  SUNNY      7 -15  36 NW21G29   30.47R WCI -13
TWO HARBORS    SUNNY      5 -15  39 NW12G23   30.37R WCI -11
SILVER BAY     SUNNY      3 -18  36 NW8G18    30.36R WCI -10
GRAND MARAIS     N/A      2 -15  45 W9        30.39R WCI -13
G MARAIS ARPRT MOSUNNY   -8 -18  59 NW10G25   30.22R WCI -26
$$
MNZ029>031-032-039>041-046>048-054>057-064-122300-
   West Central Minnesota

CITY           SKY/WX    TMP DP  RH WIND       PRES   REMARKS
FERGUS FALLS   SUNNY      1  -9  60 N14G21    30.64R WCI -17
WHEATON        SUNNY      3  -4  72 NW15G23   30.65R WCI -15
MORRIS         SUNNY      3  -4  72 NW22      30.57R WCI -19
ALEXANDRIA     SUNNY      2 -12  52 NW16      30.53R WCI -18
ELBOW LAKE     FAIR       1  -9  62 NW16      30.58S WCI -18
WADENA         SUNNY      0 -11  60 NW16      30.53R WCI -21
GLENWOOD       SUNNY      3  -9  55 NW17      30.53R WCI -17
APPLETON       SUNNY      7  -2  66 N17G23    30.61R WCI -12
BENSON         SUNNY      7  -8  51 N16       30.58R WCI -11
ORTONVILLE     SUNNY      3  -8  60 NW15      30.61R WCI -15
MADISON        MOSUNNY    7  -2  66 NW17G23   30.62R WCI -12
WILLMAR        FAIR       9  -4  56 NW17G23   30.56R WCI -10
$$
MNZ033>034-036-042>043-049>051-058-059-122300-
   Central Minnesota

CITY           SKY/WX    TMP DP  RH WIND       PRES   REMARKS
ST CLOUD       SUNNY      8 -11  41 NW15      30.50R WCI  -9
SAUK CENTRE    FAIR       4 -10  52 NW16      30.53R WCI -15
PAYNESVILLE    SUNNY      6  -7  53 NW13G20   30.53R WCI -10
AITKIN         SUNNY      5 -20  30 NW9       30.46S WCI  -9
PINE RIVER     SUNNY      3 -13  47 NW9G16    30.51R WCI -11
BRAINERD       SUNNY      5 -13  43 N14       30.49R WCI -12
STAPLES        SUNNY      3 -15  43 NW15      30.51R WCI -15
LONG PRAIRIE   FAIR       5  -9  51 W14       30.51R WCI -12
LITTLE FALLS   SUNNY      9 -15  33 NW12G18   30.51R WCI  -6
LITCHFIELD     SUNNY      9  -8  47 NW16      30.53R WCI  -9
BUFFALO        SUNNY      9  -9  45 NW13      30.52R WCI  -7
MAPLE LAKE     SUNNY      9  -7  47 NW12G17   30.52R WCI  -5
$$
MNZ037-044-045-052-053-122300-
   East Central Minnesota

CITY           SKY/WX    TMP DP  RH WIND       PRES   REMARKS
PRINCETON      SUNNY      9 -11  40 NW14G21   30.48R WCI  -8
MORA           SUNNY      7 -13  40 NW15G22   30.49R WCI -11
CAMBRIDGE      SUNNY      9  -8  47 NW17G25   30.47R WCI -10
RUSH CITY      MOSUNNY    7 -13  38 NW10G17   30.48R WCI  -7
MOOSE LAKE     SUNNY      5 -15  39 NW8       30.44S WCI  -8
HINCKLEY       FAIR       9 -13  37 NW15      30.46R WCI  -8
CLOQUET        SUNNY      3 -18  36 NW14G21   30.41R WCI -15
MCGREGOR       SUNNY      5 -13  43 NW14      30.46R WCI -12
$$
MNZ071>073-080-081-089-090-097-098-122300-
   Southwest Minnesota

CITY           SKY/WX    TMP DP  RH WIND       PRES   REMARKS
MONTEVIDEO     PTSUNNY    7   0  72 N16G24    30.60R WCI -11
GRANITE FALLS  PTSUNNY    9   1  69 NW16G24   30.60R WCI  -9
CANBY          MOSUNNY    8  -2  64 NW15      30.61R WCI  -9
MARSHALL       PTSUNNY    5  -3  69 N22       30.57R WCI -16
REDWOOD FALLS  SUNNY      9  -3  58 NW17G24   30.55R WCI  -9
OLIVIA         SUNNY     10  -2  56 NW15G24   30.54R WCI  -6
PIPESTONE      SUNNY      7  -9  47 N12G18    30.51R WCI  -9
WINDOM         PTSUNNY    5   0  78 NW25      30.51R HAZE    WCI -18
WORTHINGTON    SUNNY      5  -4  66 NW20      30.52R WCI -15
JACKSON        MOSUNNY    9  -2  61 NW21G30   30.50R WCI -11
TRACY          HAZE       7   0  73 N21       30.55R VSB 1/2 WCI -14
SLAYTON        MOSUNNY    4  -4  70 N15G22    30.52R WCI -14
$$
MNZ065>067-074>077-082>085-091>093-122300-
   South Central Minnesota

CITY           SKY/WX    TMP DP  RH WIND       PRES   REMARKS
MANKATO        SUNNY      9  -4  56 NW20G26   30.49R WCI -11
NEW ULM        SUNNY      9  -6  52 NW18G24   30.51R WCI -10
ST JAMES       SUNNY      9   1  72 NW20G25   30.53R WCI -11
FAIRMONT       PTSUNNY    9  -2  61 NW24      30.48R WCI -12
GLENCOE        SUNNY     10  -5  52 NW16G23   30.52R WCI  -8
FARIBAULT      SUNNY      9  -6  52 W17       30.46R WCI -10
OWATONNA       SUNNY      9  -6  52 NW23      30.46R WCI -12
WASECA         SUNNY     10  -2  56 NW17G23   30.49R WCI  -7
ALBERT LEA     SUNNY      9  -4  56 NW15G24   30.44R WCI  -8
$$
MNZ078>079-086>088-094>096-122300-
   Southeast Minnesota

CITY           SKY/WX    TMP DP  RH WIND       PRES   REMARKS
ROCHESTER      SUNNY      9  -6  50 N22       30.39R WCI -11
RED WING       SUNNY     10 -13  34 N15G23    30.45R WCI  -6
STANTON        SUNNY     11  -8  43 NW16      30.45R WCI  -6
DODGE CENTER   SUNNY      9  -6  52 NW21G26   30.40R WCI -11
WINONA         SUNNY     12  -6  44 NW22      30.44R WCI  -7
AUSTIN         SUNNY      9  -4  56 NW18G26   30.42R WCI -10
PRESTON        SUNNY      9  -7  48 NW18G25   30.37R WCI  -9
$$
ABBREVIATIONS USED IN REMARKS
   TC - TEMPERATURES IN CELSIUS
  WCI - WIND CHILL INDEX
   HX - HEAT INDEX
  VSB - VISIBILITY
$$



USA.gov is the U.S. government's official web portal to all federal, state and local government web resources and services.